Voltar ao catálogo

ISO DEB

AtivoHEO
NORAD 24700·DEBRIS·🇪🇺 EU

Lançado Nov 17, 1995 de Guiana Space Centre

Loading…

Próximas Passagens (próximas 24 horas)

TLE

AtualizadoSource: Space-Track

Época: Sep 11, 2026, 18:56 UTC

1 24700U 95062C   26254.78918096 -.00000166  00000-0  00000-0 0  9996
2 24700   4.7276  23.3795 8254746  40.7124 203.8033  1.00122341 43857

Acompanhe ISO DEB em tempo real com AllMySat

Download on the App Store